Home > Weather > Cobar > Past weeks

Flag for Australia Past Weather in Cobar, New South Wales, Australia — Yesterday and Last 2 Weeks

Now
58 °F

Passing clouds.


Feels Like: 55 °F
Forecast: 42 / 59 °F
Wind: 10 mph from Northwest

Location: Cobar

Current Time: Jul 25, 2016 at 4:22:59 PM

Latest Report: Jul 25, 2016 at 3:00 PM


Visibility: N/A

Pressure: 30.06 "Hg

Humidity: 57%

Dew Point: 42 °F

Location of CobarLocation

Past Weather in Cobar — Graph

°F

Cobar Temperature Yesterday

Maximum temperature yesterday: 58 °F (at 3:00 PM)
Minimum temperature yesterday: 41 °F (at 5:00 AM)
Average temperature yesterday: 49 °F

High & Low Weather Summary for the Past Weeks

 TemperatureHumidityPressure
High74 °F (Jul 22, 3:00 PM)100% (Jul 21, 2:00 AM)30.53 "Hg (Jul 21, 2:00 AM)
Low35 °F (Jul 14, 8:00 AM)39% (Jul 16, 3:00 PM)29.69 "Hg (Jul 22, 9:00 PM)
Average54 °F76%30.13 "Hg
* Reported Jul 10 3:00 PM — Jul 25 3:00 PM, Cobar, Weather by CustomWeather, © 2016

Note: Actual official high and low records may vary slightly from our data, if they occured in-between our weather recording intervals... More about our weather records

Advertising

Cobar Weather History for the Previous 24 Hours

Scroll right to see more
 ConditionsComfort  
Time TempWeatherWind HumidityBarometerVisibility
3:00 PM
Mon, Jul 25
58 °FPassing clouds.10 mph57%30.06 "HgN/A
2:00 PM56 °FRefreshingly cool.10 mph54%30.06 "HgN/A
12:00 PM55 °FScattered clouds.8 mph58%30.11 "HgN/A
11:00 AM53 °FCool.10 mph60%30.12 "HgN/A
9:00 AM47 °FCool.9 mph67%30.11 "HgN/A
8:00 AM43 °FQuite cool.8 mph76%30.09 "HgN/A
6:00 AM40 °FQuite cool.8 mph83%30.05 "HgN/A
5:00 AM41 °FQuite cool.7 mph82%30.03 "HgN/A
3:00 AM43 °FQuite cool.7 mph78%30.01 "HgN/A
2:00 AM45 °FQuite cool.8 mph73%30.01 "HgN/A
12:00 AM48 °FCool.10 mph65%30.01 "HgN/A
11:00 PM
Sun, Jul 24
46 °FCool.7 mph70%30.00 "HgN/A
9:00 PM50 °FPassing clouds.8 mph62%29.97 "HgN/A
8:00 PM51 °FCool.7 mph61%29.97 "HgN/A
6:00 PM54 °FOvercast.8 mph58%29.92 "HgN/A
5:00 PM56 °FRefreshingly cool.12 mph52%29.91 "HgN/A
Weather by CustomWeather, © 2016

See weather overviewHow to use our weather pages